Location: Brno
(49.2000°N, 16.6330°E)
Time: 18:57:47
(UTC+02:00)

Vanguard 1 Rocket - All Passes

Search period start: 28 July 2021 00:00
Search period end: 07 August 2021 00:00
Orbit: 650 x 4226 km, 34.3° (Epoch: 27 July)

Date Brightness Start Highest point End Pass type
(mag) Time Alt. Az. Time Alt. Az. Time Alt. Az.
28 Jul - 09:00:21 10° SSE 09:06:04 12° SE 09:10:58 10° SE daylight
28 Jul - 11:20:25 10° SSW 11:32:58 26° SSE 11:40:52 10° ESE daylight
28 Jul - 13:48:31 10° WSW 13:58:41 30° S 14:04:47 10° SE daylight
28 Jul - 16:17:58 10° WSW 16:22:45 17° SSW 16:26:21 10° SSE daylight
29 Jul - 10:08:03 10° SSW 10:20:52 22° SSE 10:29:31 10° ESE daylight
29 Jul - 12:34:47 10° SW 12:47:20 32° S 12:54:40 10° ESE daylight
29 Jul - 15:04:16 10° WSW 15:12:13 26° SSW 15:17:20 10° SE daylight
30 Jul - 08:57:11 10° S 09:08:28 17° SSE 09:16:58 10° ESE daylight
30 Jul - 11:21:08 10° SW 11:35:33 31° SSE 11:44:09 10° ESE daylight
30 Jul - 13:50:25 10° WSW 14:01:18 32° S 14:07:41 10° SE daylight
30 Jul - 16:20:48 10° WSW 16:25:09 15° SSW 16:28:33 10° S daylight
31 Jul - 07:50:04 10° SSE 07:55:55 12° SE 08:01:06 10° SE daylight
31 Jul - 10:07:59 10° SSW 10:23:20 28° SSE 10:33:07 10° ESE daylight
31 Jul - 12:36:17 10° WSW 12:49:56 36° S 12:57:40 10° ESE daylight
31 Jul - 15:06:35 10° WSW 15:14:42 25° SSW 15:19:57 10° SSE daylight
01 Aug - 08:55:57 10° SSW 09:10:47 23° SSE 09:21:13 10° ESE daylight
01 Aug - 11:22:08 10° SW 11:38:04 36° S 11:47:16 10° ESE daylight
01 Aug - 13:52:23 10° WSW 14:03:50 33° SSW 14:10:30 10° SE daylight
01 Aug - 16:23:57 10° WSW 16:27:28 13° SW 16:30:21 10° SSW daylight
02 Aug - 07:45:56 10° S 07:58:05 17° SE 08:07:44 10° ESE daylight
02 Aug - 10:08:24 10° SW 10:25:45 33° SSE 10:36:24 10° ESE daylight
02 Aug - 12:37:55 10° WSW 12:52:28 38° S 13:00:34 10° ESE daylight
02 Aug - 15:08:59 10° WSW 15:17:06 23° SSW 15:22:26 10° SSE daylight
03 Aug - 06:42:23 10° SE 06:45:25 10° SE 06:48:19 10° SE daylight
03 Aug - 08:55:34 10° SSW 09:13:03 28° SSE 09:24:51 10° ESE daylight
03 Aug - 11:23:23 10° SW 11:40:33 40° S 11:50:15 10° ESE daylight
03 Aug - 13:54:25 10° WSW 14:06:17 33° SSW 14:13:11 10° SE daylight
03 Aug - 16:27:58 10° WSW 16:29:39 11° SW 16:31:11 10° SSW daylight
04 Aug - 07:44:15 10° S 08:00:11 22° SE 08:12:12 10° ESE daylight
04 Aug - 10:09:10 10° SW 10:28:07 38° SSE 10:39:28 10° ESE daylight
04 Aug - 12:39:39 10° WSW 12:54:55 39° S 13:03:23 10° SE daylight
04 Aug - 15:11:29 10° WSW 15:19:22 21° SW 15:24:42 10° S daylight
05 Aug - 06:35:40 10° SSE 06:47:20 16° SE 06:57:18 10° ESE daylight
05 Aug - 08:55:45 10° SSW 09:15:16 34° SSE 09:28:07 10° E daylight
05 Aug - 11:24:48 10° WSW 11:42:58 43° S 11:53:08 10° ESE daylight
05 Aug - 13:56:32 10° W 14:08:39 31° SSW 14:15:46 10° SSE daylight
06 Aug - 07:43:36 10° SSW 08:02:12 28° SSE 08:15:54 10° E daylight
06 Aug - 10:10:12 10° SW 10:30:26 42° S 10:42:25 10° ESE daylight
06 Aug - 12:41:28 10° WSW 12:57:19 40° SSW 13:06:06 10° SE daylight
06 Aug - 15:14:10 10° WSW 15:21:32 18° SW 15:26:42 10° S daylight
